User: anonymous   Login
Location: Drayton Valley
(53.2170°N, 114.9830°W)
Time: 06:01:14
(UTC-07:00)
Language:

MOZ.5/SAFIR/RUBIN 5/SL-8 - Orbit

View from above orbital plane
View from above orbital plane
View from above satellite
View from above satellite

Ground track
Ground track

The orbit data is extracted from the following two-line orbital elements,

1 28898U 05043G   17016.47117280  .00000046  00000-0  18754-4 0  9991
2 28898  97.9026 173.0248 0018718 307.1702  52.7790 14.60157597597691
Epoch (UTC): 16 January 2017 11:18:29
Eccentricity: 0.0018718
inclination: 97.9026°
perigee height: 679 km
apogee height: 706 km
right ascension of ascending node: 173.0248°
argument of perigee: 307.1702°
revolutions per day: 14.60157597
mean anomaly at epoch: 52.7790°
orbit number at epoch: 59769

The dashed part of the orbit path shows where the satellite is in the earth's shadow,  

DLR